Probability
0 0 0 0 0 0 0 0 0 0 0 0 0 0 0 0 0 0 0 0 0 0 0 0 0 0 0 0 0 0 0 0 0 0 0 0 0 0 0 0 0 0 0
0 0 0 0 0 0 0 0 0 0 0 0 0 0 0 0 0 0 0 0 0 0 0 0 0 0 0 0 0 0 0 0 0 0 0 0 0 0 0 0 0 0 0
0 0 0 0 0 0 0 0 0 0 0 0 0 0 0 0 0 0 0 0 0 0 0 0 0 0 0 0 0 0 0 0 0 0 0 0 0 0 0 0 0 0 0
0 0 0 0 0 0 0 0 0 0 0 0 0 0 0 0 0 0 0 0 0 0 0 0 0 0 0 0 0 0 0 0 0 0 0 0 0 0 0 0 0 0 0
0 0 0 0 0 0 0 0 0 0 0 0 0 0 0 0 0 0 0 0 0 0 0 0 0 0 0 0 0 0 0 0 0 0 0 0 0 0 0 0 0 0 0
0 0 0 0 0 0 0 0 0 0 0 0 0 0 0 0 0 0 0 0 0 0 0 0 0 0 0 0 0 0 0 0 0 0 0 0 0 0 0 0 0 0 0
0 0 0 0 0 0 0 0 0 0 0 0 0 0 0 0 0 0 0 0 0 0 0 0 0 0 0 0 0 0 0 0 0 0 0 0 0 0 0 0 0 0 0
0 0 0 0 0 0 0 0 0 0 0 0 0 0 0 0 0 0 0 0 0 0 0 0 0 0 0 0 0 0 0 0 0 0 0 0 0 0 0 0 0 0 0
0 0 0 0 0 0 0 0 0 0 0 0 0 0 0 0 0 0 0 0 0 0 0 0 0 0 0 0 0 0 0 0 0 0 0 0 0 0 0 0 0 0 0
0 0 0 0 0 0 0 0 0 0 0 0 0 0 0 0 0 0 0 0 0 0 0 0 0 0 0 0 0 0 0 0 0 0 0 0 0 0 0 0 0 0 0
0 0 0 0 0 0 0 0 0 0 0 0 0 0 0 0 0 0 0 0 0 0 0 0 0 0 0 0 0 0 0 0 0 0 0 0 0 0 0 0 0 0 0
0 0 0 0 0 0 0 0 0 0 0 0 0 0 0 0 0 0 0 0 0 0 0 0 0 0 0 0 0 0 0 0 0 0 0 0 0 0 0 0 0 0 0
0 0 0 0 0 0 0 0 0 0 0 0 0 0 0 0 0 0 0 0 0 0 0 0 0 0 0 0 0 0 0 0 0 0 0 0 0 0 0 0 0 0 0
0 0 0 0 0 0 0 0 0 0 0 0 0 0 0 0 0 0 0 0 0 0 0 0 0 0 0 0 0 0 0 0 0 0 0 0 0 0 0 0 0 0 0
0 0 0 0 0 0 0 0 0 0 0 0 0 0 0 0 0 0 0 0 0 0 0 0 0 0 0 0 0 0 0 0 0 0 0 0 0 0 0 0 0 0 0
0 0 0 0 0 0 0 0 0 0 0 0 0 0 0 0 0 0 0 0 0 0 0 0 0 0 0 0 0 0 0 0 0 0 0 0 0 0 0 0 0 0 0
0 0 0 0 0 0 0 0 0 0 0 0 0 0 0 0 0 0 0 0 0 0 0 0 0 0 0 0 0 0 0 0 0 0 0 0 0 0 0 0 0 0 0
0 0 0 0 0 0 0 0 0 0 0 0 0 0 0 0 0 0 0 0 0 0 0 0 0 0 0 0 0 0 0 0 0 0 0 0 0 0 0 0 0 0 0
0 0 0 0 0 0 0 0 0 0 0 0 0 0 0 0 0 0 0 0 0 0 0 0 0 0 0 0 0 0 0 0 0 0 0 0 0 0 0 0 0 0 0
0 0 0 0 0 0 0 0 0 0 0 0 0 0 0 0 0 0 0 0 0 0 0 0 0 0 0 0 0 0 0 0 0 0 0 0 0 0 0 0 0 0 0
0 0 0 0 0 0 0 0 0 0 0 0 0 0 0 0 0 0 0 0 0 0 0 0 0 0 0 0 0 0 0 0 0 0 0 0 0 0 0 0 0 0 0
0 0 0 0 0 0 0 0 0 0 0 0 0 0 0 0 0 0 0 0 0 0 0 0 0 0 0 0 0 0 0 0 0 0 0 0 0 0 0 0 0 0 0
0 0 0 0 0 0 0 0 0 0 0 0 0 0 0 0 0 0 0 0 0 0 0 0 0 0 0 0 0 0 0 0 0 0 0 0 0 0 0 0 0 0 0
0 0 0 0 0 0 0 0 0 0 0 0 0 0 0 0 0 0 0 0 0 0 0 0 0 0 0 0 0 0 0 0 0 0 0 0 0 0 0 0 0 0 0
0 0 0 0 0 0 0 0 0 0 0 0 0 0 0 0 0 0 0 0 0 0 0 0 0 0 0 0 0 0 0 0 0 0 0 0 0 0 0 0 0 0 0
0 0 0 0 0 0 0 0 0 0 0 0 0 0 0 0 0 0 0 0 0 0 0 0 0 0 0 0 0 0 0 0 0 0 0 0 0 0 0 0 0 0 0
Wind_Speed
6 5 5 5 4 4 4 4 4 3 3 3 2 2 1 1 1 1 1 0 0 1 1 0 1 0 0 0 1 1 1 2 1 2 1 1 2 2 2 2 1 1 1
5 5 5 5 4 4 5 5 4 4 3 3 2 2 2 2 2 2 2 1 1 1 1 1 1 0 0 0 1 1 1 1 2 1 1 1 1 2 2 1 1 1 1
5 5 5 5 5 6 6 5 4 4 3 2 2 3 3 3 2 2 2 2 2 2 2 2 2 1 1 1 1 1 1 1 1 1 1 1 1 1 2 2 1 2 2
5 5 6 7 6 6 5 5 4 4 3 3 3 3 3 3 3 3 3 2 2 2 2 2 2 2 3 2 2 2 1 1 1 1 0 1 1 1 1 1 1 2 2
4 6 7 6 5 5 5 5 4 4 4 4 3 3 3 3 3 3 3 3 3 2 2 2 3 4 5 4 3 3 3 2 1 1 0 0 1 1 1 1 1 1 1
5 6 6 5 5 6 6 5 4 4 4 3 4 4 4 4 5 6 5 3 3 3 2 2 2 2 3 4 4 5 5 4 3 2 1 1 1 1 1 1 0 1 1
5 5 4 5 6 6 6 5 5 5 4 4 4 4 4 5 7 6 6 4 3 3 3 2 1 1 2 1 1 2 3 4 5 4 3 2 2 2 1 0 0 0 1
4 4 4 5 6 5 5 6 6 5 5 5 5 5 4 5 7 6 6 3 2 2 2 3 2 2 2 3 3 2 1 1 2 2 2 2 2 2 2 2 1 0 1
4 5 5 5 6 5 7 7 6 5 5 5 4 5 5 5 7 7 6 3 2 2 2 2 3 3 4 4 4 3 2 1 2 3 3 3 3 3 2 2 1 1 1
6 6 5 5 6 7 8 7 5 5 6 5 5 5 6 6 7 8 7 3 3 2 1 1 3 4 4 4 4 4 3 1 2 2 3 4 3 4 4 2 1 1 0
6 5 4 5 6 6 6 5 5 5 5 5 5 5 5 6 7 8 9 4 4 3 2 2 2 4 4 5 5 4 5 4 3 3 2 2 3 3 3 2 1 1 1
5 5 5 5 5 4 4 4 5 6 6 6 5 4 4 4 6 7 10 9 7 5 4 3 2 4 5 4 4 5 6 5 3 3 2 2 1 1 2 2 2 2 2
5 5 5 5 5 4 4 4 4 5 5 6 5 6 5 4 5 9 10 11 11 5 4 6 6 5 4 3 4 6 5 3 3 3 2 1 0 0 1 1 2 3 3
6 6 5 4 5 4 4 4 4 6 6 7 7 7 5 4 5 4 4 5 8 6 4 5 6 6 4 4 4 3 2 3 3 3 2 1 1 1 1 1 1 2 2
7 6 5 5 5 5 5 5 6 7 8 9 8 7 7 8 10 13 9 7 7 6 6 3 2 2 2 2 2 2 2 2 3 2 2 2 2 1 1 1 1 2 2
7 6 5 5 4 4 4 5 7 7 11 13 12 11 9 10 12 16 16 14 14 15 8 4 4 4 4 4 4 3 2 2 2 3 3 2 2 2 1 1 1 1 1
8 8 5 5 5 5 5 5 5 6 7 10 12 14 12 11 13 16 16 15 15 16 6 5 5 5 5 5 4 4 3 3 3 3 3 2 2 2 2 1 1 1 0
8 10 8 6 6 6 6 6 6 5 5 5 7 12 13 13 14 16 16 12 8 8 5 6 6 6 5 5 5 4 3 3 3 3 3 2 2 2 2 1 1 1 0
8 7 6 6 6 6 6 6 6 6 6 5 3 5 10 11 12 15 17 8 9 8 6 6 6 6 6 6 5 5 5 4 4 3 3 3 2 2 2 1 1 1 0
8 14 12 7 6 6 6 6 6 6 6 6 6 6 6 6 6 9 9 7 8 8 8 7 7 7 7 7 6 6 5 4 4 4 3 3 3 2 2 2 2 1 1
7 9 14 9 6 6 7 7 7 7 7 7 7 7 12 9 10 11 10 9 9 9 9 8 7 8 7 7 7 7 7 5 5 4 4 3 3 3 2 2 2 1 1
7 7 7 7 7 7 7 7 7 7 8 8 6 7 15 9 8 8 9 9 8 7 8 8 8 8 8 8 8 8 7 6 6 5 4 4 3 3 2 2 2 1 1
8 8 9 8 8 10 9 7 7 8 8 8 7 6 8 9 8 9 9 8 7 7 7 7 8 7 6 6 7 8 8 8 7 7 6 5 4 3 3 2 2 2 2
8 9 9 9 8 8 8 8 8 8 8 8 8 8 8 9 9 9 8 8 8 8 8 8 8 11 12 8 6 6 6 6 6 6 8 6 5 4 3 2 2 3 3
8 9 9 9 9 8 9 9 8 8 8 8 8 8 8 8 8 9 8 8 9 9 10 9 8 10 13 12 9 7 10 12 9 7 6 5 5 4 3 3 3 3 3
9 9 9 8 8 8 8 8 8 8 8 8 8 7 8 8 8 8 8 9 9 9 9 8 10 11 12 10 11 12 13 12 11 10 6 5 5 4 3 2 3 3 3
Wind_Direction
207 211 213 213 211 210 219 232 235 241 241 240 241 237 242 249 231 178 216 178 147 315 325 189 271 241 144 91 136 140 152 155 190 281 295 320 351 360 354 360 358 354 325
209 207 216 219 209 212 226 235 231 237 240 233 229 224 234 235 220 208 231 218 206 236 259 242 270 230 169 128 142 157 173 178 175 226 318 341 342 331 337 348 353 357 331
207 206 214 217 213 218 227 231 225 227 234 232 216 222 230 228 219 222 221 223 222 227 225 219 238 204 216 204 187 192 193 162 165 176 271 319 327 336 356 352 355 346 333
210 210 217 219 217 221 223 221 219 218 221 224 218 220 222 220 217 220 214 214 223 229 225 218 222 210 213 203 198 202 177 142 132 148 201 322 319 320 9 355 349 351 338
212 218 226 225 218 217 218 219 218 215 221 219 217 223 225 222 222 215 212 212 215 227 232 229 231 225 220 206 193 188 169 159 145 141 181 315 316 334 312 303 313 322 327
217 229 230 221 215 215 217 215 213 217 220 213 217 220 228 237 239 223 205 205 208 209 224 239 248 250 233 215 205 189 176 170 174 169 185 205 252 249 254 273 286 11 329
226 235 229 221 221 222 218 210 212 215 212 214 221 218 229 242 241 228 210 191 198 208 213 222 242 221 203 180 180 174 185 191 182 171 180 211 218 222 201 212 178 176 249
244 248 239 227 229 225 215 217 219 210 206 215 221 219 225 237 229 214 196 182 187 204 208 206 208 227 196 167 148 127 123 149 177 167 173 201 205 202 199 192 184 190 291
266 260 251 235 232 226 222 224 220 210 212 212 211 210 215 232 219 200 180 161 178 209 217 208 203 209 200 165 144 141 123 74 87 103 112 105 86 87 111 113 103 99 342
271 263 256 242 233 231 228 224 216 209 216 210 212 210 210 220 215 201 183 163 176 197 210 225 213 196 191 173 161 158 162 180 123 88 66 56 54 49 65 99 148 147 155
279 271 259 246 242 240 233 226 211 206 205 207 212 215 211 215 214 205 191 175 184 185 192 207 212 186 175 168 162 169 178 157 130 117 94 68 52 45 39 40 52 124 143
289 272 260 250 248 251 238 232 211 198 200 207 211 220 222 219 213 210 200 193 183 178 192 198 191 167 152 146 150 158 153 136 117 111 102 86 66 43 27 31 43 56 76
292 279 271 261 247 239 228 229 220 203 205 209 207 216 221 214 217 212 202 193 184 178 187 178 165 149 135 129 131 138 136 130 129 129 136 140 128 55 39 46 41 50 51
291 285 280 266 260 250 236 222 219 213 212 212 211 215 215 207 206 201 193 184 177 170 160 151 137 122 110 111 107 107 114 138 142 144 143 128 90 71 58 54 54 34 47
293 288 284 271 258 250 243 234 230 229 219 213 215 208 200 211 213 195 181 180 175 169 144 125 126 130 130 120 107 106 109 118 119 122 126 120 103 81 52 45 62 55 61
296 290 281 274 270 259 256 274 261 252 246 234 224 209 213 215 200 192 191 185 174 163 148 157 170 171 173 170 161 151 141 141 140 137 134 136 136 128 100 62 68 85 76
288 285 281 271 266 261 252 250 269 281 263 241 229 217 210 202 194 190 187 180 174 166 161 172 178 181 180 175 172 168 168 164 151 145 145 147 143 137 126 112 95 89 76
295 287 283 268 261 257 251 248 246 246 258 261 237 222 212 201 192 187 176 158 170 177 179 178 181 179 177 175 173 168 161 152 148 150 150 151 150 147 146 151 154 164 205
299 292 280 268 260 257 253 251 248 243 245 252 248 225 208 199 191 185 170 173 179 186 187 183 179 175 174 173 171 166 163 163 160 154 156 159 159 152 156 165 174 202 207
296 299 299 285 270 264 255 248 244 242 242 240 232 219 184 173 185 186 190 189 185 186 184 183 180 177 173 171 167 164 161 162 162 160 163 163 164 162 169 178 184 196 227
294 296 297 293 275 265 257 249 245 240 239 240 238 219 195 195 197 195 195 196 192 188 184 181 177 175 172 167 166 167 167 168 169 168 167 167 164 165 172 176 187 203 234
288 289 284 280 278 271 262 252 246 243 240 240 244 224 208 205 202 199 198 198 194 186 179 175 175 176 174 171 169 167 169 172 172 170 169 168 165 165 165 171 182 209 234
286 288 286 281 276 276 272 258 247 242 241 238 233 220 208 209 207 203 199 192 183 178 172 170 169 168 167 168 168 168 171 176 176 171 167 165 165 169 172 184 202 225 246
286 285 285 282 277 272 267 262 252 245 239 236 233 225 214 209 207 203 195 184 178 175 172 171 171 169 164 161 162 163 164 163 161 164 164 164 167 171 177 191 213 232 249
286 285 284 280 275 272 269 263 256 249 240 234 230 225 217 208 205 198 187 179 175 174 173 169 166 164 163 161 160 161 163 161 159 155 155 157 165 174 183 201 220 240 256
286 285 283 280 274 271 267 262 255 249 243 238 229 219 213 205 200 192 180 175 173 172 169 167 164 160 158 159 160 160 161 161 161 160 153 153 162 176 185 208 227 241 255